Location: Praha
(50.0830°N, 14.4670°E)
Time: 22:48:47
(UTC+02:00)

ISS - Visible Passes

Search period start: 18 October 2019 00:00
Search period end: 27 October 2019 23:00
Orbit: 411 x 421 km, 51.6° (Epoch: 19 October)

Date Brightness Start Highest point End Pass type
(mag) Time Alt. Az. Time Alt. Az. Time Alt. Az.
24 Oct -0.9 06:50:27 10° S 06:52:42 17° SE 06:54:58 10° E visible
25 Oct -0.6 06:03:18 10° SSE 06:04:21 11° SE 06:05:23 10° ESE visible
26 Oct -2.1 06:48:51 10° SW 06:51:56 34° SSE 06:55:01 10° E visible
27 Oct -1.6 05:00:52 11° SSW 05:03:27 23° SE 05:06:13 10° E visible
